Regional Weather Roundup
Issued by NWS Burlington, VT

Home | Current Version | Previous Version | Text Only | Print | Product List | Glossary On
Versions: 1 2 3 4 5 6 7 8 9 10 11 12 13 14 15 16 17 18 19 20 21 22 23 24 25 26 27 28 29 30 31 32 33 34 35 36 37 38 39 40 41 42 43 44 45 46 47 48 49 50
000
ASUS41 KBTV 230010
RWRBTV
VERMONT REGIONAL WEATHER ROUNDUP
NATIONAL WEATHER SERVICE BURLINGTON VT
800 PM EDT FRI AUG 22 2014

NOTE: "FAIR" INDICATES FEW OR NO CLOUDS BELOW 12,000 FEET WITH NO
SIGNIFICANT WEATHER AND/OR OBSTRUCTIONS TO VISIBILITY.

* THESE REPORTS ARE NOT UNDER NWS QUALITY CONTROL AND/OR DO NOT
  REPORT WEATHER SUCH AS PRECIPITATION AND FOG.

VTZ001>019-230100-
_____VERMONT_____


CITY           SKY/WX    TMP DP  RH WIND       PRES   REMARKS
BURLINGTON     CLOUDY    64  61  90 SW6       30.12R
6HR MIN TEMP:  64; 6HR MAX TEMP:  67; 6HR PCP: TRACE;

MONTPELIER     LGT RAIN  61  60  97 CALM      30.18R
6HR MIN TEMP:  61; 6HR MAX TEMP:  63; 6HR PCP:  0.10;

MORRISVILLE    LGT RAIN  62  60  93 S5        30.15R FOG
6HR MIN TEMP:  62; 6HR MAX TEMP:  64; 6HR PCP:  0.24;

ST. JOHNSBURY*   N/A     63  62  97 MISG      30.13R
6HR MIN TEMP:  63; 6HR MAX TEMP:  66; 6HR PCP:  0.16;

MIDDLEBURY*    DRIZZLE   63  63 100 CALM      30.12S
6HR MIN TEMP:  63; 6HR MAX TEMP:  66; 6HR PCP:  0.04;

RUTLAND*       CLOUDY    61  61 100 CALM      30.12S
6HR MIN TEMP:  61; 6HR MAX TEMP:  64; 6HR PCP:  0.02;

SPRINGFIELD    LGT RAIN  63  62  97 CALM      30.13S
6HR MIN TEMP:  62; 6HR MAX TEMP:  64; 6HR PCP:  0.02;

HIGHGATE*      CLOUDY    65  60  83 SE6       30.11S
6HR MIN TEMP:  65; 6HR MAX TEMP:  69;

NEWPORT*       CLOUDY    63  60  91 CALM      30.15R
6HR MIN TEMP:  63; 6HR MAX TEMP:  68;

BENNINGTON     CLOUDY    65  58  78 E6        30.10S
6HR MIN TEMP:  63; 6HR MAX TEMP:  67; 6HR PCP: TRACE;

SUTTON*          N/A     61 N/A N/A MISG        N/A

_____LAKE CHAMPLAIN_____


CITY           SKY/WX    TMP DP  RH WIND       PRES   REMARKS
COLCHESTER RF*   N/A     64  63  94 S13         N/A
DIAMOND ISL*     N/A    N/A N/A N/A S6          N/A

$$

NYZ007-026>031-035-052-083-230100-
_____NORTHERN NEW YORK_____


CITY           SKY/WX    TMP DP  RH WIND       PRES   REMARKS
PLATTSBURGH    CLOUDY    64  62  93 CALM      30.10S
6HR MIN TEMP:  64; 6HR MAX TEMP:  67; 6HR PCP:  0.11;

SARANAC LAKE   CLOUDY    63  57  81 S5        30.08S
6HR MIN TEMP:  63; 6HR MAX TEMP:  67; 6HR PCP:  0.01;

MASSENA        CLOUDY    67  62  84 NE9       30.05R
6HR MIN TEMP:  67; 6HR MAX TEMP:  76;

OGDENSBURG*    CLOUDY    70  64  83 CALM      30.04R
WATERTOWN      CLOUDY    71  64  78 E5        30.01R
6HR MIN TEMP:  69; 6HR MAX TEMP:  75; 6HR PCP:  1.25;

FT DRUM        MOCLDY    68  64  88 SE8       30.03R
6HR MIN TEMP:  67; 6HR MAX TEMP:  78; 6HR PCP:  1.35;

ALBANY         CLOUDY    66  59  78 E5        30.08R
6HR MIN TEMP:  64; 6HR MAX TEMP:  68; 6HR PCP:  0.12;


$$
NHZ002-005-011-230100-
_____NEW HAMPSHIRE_____


CITY           SKY/WX    TMP DP  RH WIND       PRES   REMARKS
LEBANON        CLOUDY    62  59  90 CALM      30.13R
6HR MIN TEMP:  62; 6HR MAX TEMP:  65; 6HR PCP:  0.09;

KEENE          CLOUDY    64  55  72 CALM      30.12S
6HR MIN TEMP:  64; 6HR MAX TEMP:  66;

MT WASHINGTON  LGT RAIN  46  46 100 E17         N/A  VSB 0
6HR MIN TEMP:  45; 6HR MAX TEMP:  47; 6HR PCP: TRACE;

PLYMOUTH       CLOUDY    62  62 100 CALM      30.14R
6HR MIN TEMP:  62; 6HR MAX TEMP:  65; 6HR PCP:  0.01;

WHITEFIELD     CLOUDY    64  60  87 CALM      30.14R
6HR MIN TEMP:  64; 6HR MAX TEMP:  70; 6HR PCP: TRACE;


$$

_____REGIONAL QUEBEC LOCATIONS_____


CITY           SKY/WX    TMP DP  RH WIND       PRES   REMARKS
MONTREAL       MOCLDY    70  59  68 SE12      30.10R
QUEBEC CITY    PTCLDY    68  59  73 E10       30.15S
SHERBROOKE     CLOUDY    63  63 100 SE8       30.14R

_____REGIONAL ONTARIO LOCATIONS_____


CITY           SKY/WX    TMP DP  RH WIND       PRES   REMARKS
OTTAWA         PTCLDY    68  61  77 NE9       30.06S

______KEY______
VSB  - VISIBILITY IN MILES
WCI  - WIND CHILL INDEX
HX   - HEAT INDEX
$$
NNNN



USA.gov is the U.S. government's official web portal to all federal, state and local government web resources and services.